Location: Monfort
(47.1967°N, 0.2115°W)
Time: 11:08:02
(UTC+00:00)

CZ-2C R/B - Pass Details

Date: 24 October 2020
Orbit: 703 x 909 km, 98.1° (Epoch: 28 November)

Event Time Altitude Azimuth Distance (km) Brightness Sun altitude
Rises 18:00:13 0° 146° (SE) 3,527 6.1 -11.4°
Reaches altitude 10° 18:02:43 10° 141° (SE) 2,587 5.4 -11.8°
Maximum altitude 18:08:15 48° 69° (ENE) 1,165 3.5 -12.8°
Drops below altitude 10° 18:13:41 10° 357° (N) 2,540 5.7 -13.7°
Sets 18:16:06 0° 352° (N) 3,458 6.5 -14.1°
